[[{"header":{"parameterUnit":"m.s-1","parameterCategory":1,"la1":30.2991,"la2":30.254,"lo1":-89.0895,"lo2":-89.0444,"dy":0.0017,"dx":0.0017,"nx":28,"ny":28,"refTime":"2025-04-27T03:00:00:Z","depth":0,"parameterNumber":2,"parameterNumberName":"U-component_of_WINDS"},"data":[0,0,0,0,0,0,0,0,0,0,0,0,0,0,0,0,0,0,0,0,0,0,0,0,0,0,0,0,0,0,0,0,0,0,0,0,0,0,0,0,0,0,0,0,0,0,0,0,0,0,0,0,0,0,0,0,0,0,0.5754,0.5755,0,0.582,0.582,0.5821,0.5811,0.581,0.5808,0.5807,0.5881,0.5884,0.5887,0,0,0,0,0,0,0,0,0,0,0,0,0,0.5623,0.5626,0.5754,0.5755,0.5755,0.5819,0.582,0.5821,0.5811,0.5809,0.5808,0.5807,0.588,0.5883,0.5887,0,0,0,0,0,0,0,0,0,0,0,0,0,0.5684,0.5626,0.5754,0.5758,0.5759,0.5819,0.582,0.5821,0.5811,0.5809,0.5808,0.5806,0.5878,0.5883,0.5887,0.595,0,0,0.5901,0.5903,0,0,0,0,0,0,0,0,0.568,0.5689,0.5756,0.5758,0.5759,0.5805,0.5801,0.5865,0.5812,0.5792,0.5807,0.5805,0.5857,0.5863,0.588,0.5953,0.5956,0.5902,0.5904,0.5906,0.5908,0,0,0,0,0,0,0,0.5676,0.5686,0.578,0.5757,0.5759,0.5758,0.5764,0.5813,0.5833,0.5793,0.5792,0.58,0.5858,0.5875,0.5881,0.5957,0.5901,0.5905,0.5908,0.591,0.6084,0.6085,0,0,0,0,0,0,0.567,0.5682,0.5778,0.5782,0.5714,0.5761,0.5769,0.5792,0.5833,0.5837,0.5801,0.5799,0.5868,0.5876,0.5884,0.5959,0.5906,0.591,0.5913,0.6082,0.6084,0.6086,0,0,0,0,0,0,0.5667,0.5679,0.5775,0.5732,0.5744,0.5765,0.5792,0.5794,0.5812,0.5839,0.5843,0.5816,0.5867,0.5878,0.5933,0.5961,0.5913,0.5917,0.608,0.6082,0.6085,0.611,0,0,0,0,0,0,0.5664,0.5678,0.5701,0.5732,0.5746,0.5822,0.5793,0.5797,0.5819,0.5817,0.5853,0.5858,0.5867,0.5926,0.5937,0.5967,0.592,0.6077,0.6081,0.6084,0.6106,0.6113,0.6119,0,0,0,0,0,0.5659,0.5707,0.5702,0.5714,0.5775,0.5823,0.5832,0.5839,0.5821,0.5845,0.5862,0.5857,0.5956,0.5932,0.5944,0.5976,0.6075,0.608,0.6084,0.6104,0.6112,0.6118,0,0,0,0,0,0,0.5681,0.5711,0.5706,0.5766,0.5792,0.5822,0.5852,0.5848,0.5881,0.5878,0.5888,0.5896,0.5952,0.5969,0.5942,0.6037,0.6013,0.602,0.6024,0.6032,0.6038,0.6033,0.5924,0,0,0,0,0,0.5692,0.5727,0.5752,0.5802,0.5815,0.5831,0.5852,0.5856,0.5884,0.5896,0.5917,0.5946,0.5984,0.6009,0.6045,0.6108,0.6116,0.6136,0.6142,0.6147,0.6153,0.6187,0.6196,0.61,0.61,0.61,0,0,0.5717,0.5738,0.576,0.5807,0.5828,0.5864,0.5841,0.5882,0.5909,0.5903,0.5955,0.5972,0.6005,0.6064,0.6091,0.608,0.6181,0.6152,0.6156,0.616,0.6192,0.6202,0.621,0.6103,0.6102,0.6102,0,0,0.5781,0.58,0.5843,0.5863,0.5893,0.5903,0.5913,0.5943,0.5953,0.6005,0.6001,0.6035,0.6099,0.6123,0.6143,0.6212,0.6209,0.6224,0.6257,0.629,0.6297,0.6304,0.6329,0.6338,0.623,0.623,0.623,0,0.5809,0.5863,0.5866,0.5906,0.5927,0.5919,0.5964,0.5984,0.6025,0.6041,0.6027,0.6106,0.6128,0.6192,0.6209,0.6225,0.6238,0.6221,0.6295,0.6302,0.6309,0.6333,0.6342,0.6232,0.6232,0.6231,0.6231,0,0.5895,0.5932,0.5963,0.6,0.6025,0.6067,0.6078,0.6102,0.6102,0.6114,0.6167,0.6192,0.6233,0.6248,0.625,0.6312,0.6304,0.6293,0.6269,0.6319,0.6342,0.6351,0.6234,0.6234,0.6233,0.6233,0,0,0.5978,0.6013,0.6025,0.6041,0.6072,0.6102,0.6143,0.6181,0.6201,0.623,0.6265,0.6318,0.6307,0.633,0.6335,0.6363,0.6416,0.6348,0.6349,0.636,0.6486,0.6495,0.6505,0.6413,0.6415,0.6416,0.6483,0,0.6045,0.6116,0.6119,0.6184,0.6218,0.621,0.6246,0.627,0.6281,0.6313,0.6326,0.6364,0.6346,0.636,0.6388,0.6404,0.6442,0.6399,0.6447,0.6449,0.644,0.6517,0.6527,0.659,0.6492,0.6494,0.6495,0,0.6133,0.6161,0.6229,0.6253,0.6268,0.63,0.6333,0.6363,0.639,0.6396,0.642,0.6419,0.6463,0.6436,0.6496,0.6467,0.6486,0.6497,0.65,0.6506,0.6476,0.6526,0.661,0.662,0.6509,0.6508,0.6507,0,0.6187,0.6241,0.6289,0.6303,0.6332,0.6355,0.6369,0.6393,0.6415,0.6444,0.6458,0.6493,0.6513,0.654,0.655,0.6529,0.6609,0.6583,0.6617,0.6616,0.6635,0.6634,0.6724,0.6646,0.6646,0.6646,0.6646,0,0.6262,0.6305,0.6313,0.6342,0.6389,0.6392,0.6438,0.6451,0.6472,0.6504,0.65,0.6531,0.654,0.6573,0.658,0.6628,0.6638,0.6644,0.6646,0.6646,0.6645,0.666,0.6656,0.6649,0.6648,0.6648,0.6647,0,0.6331,0.6338,0.6389,0.6412,0.6418,0.6452,0.6472,0.65,0.6509,0.655,0.656,0.6575,0.6613,0.6624,0.6671,0.6675,0.6732,0.673,0.6723,0.6723,0.6756,0.6753,0.686,0.6874,0.6786,0.6787,0.6787,0,0.638,0.6411,0.6436,0.6456,0.647,0.6502,0.6523,0.6527,0.6549,0.658,0.6605,0.6641,0.6671,0.6732,0.6749,0.6784,0.6782,0.6817,0.6788,0.6786,0.6784,0.6782,0.6785,0.6824,0.6824,0.6825,0.6826,0,0.6465,0.6466,0.6495,0.6524,0.6549,0.6573,0.6596,0.6613,0.662,0.6646,0.6683,0.6705,0.6751,0.6787,0.6822,0.6838,0.6834,0.6834,0.6844,0.6844,0.6839,0.6843,0.6739,0.6833,0.6832,0.6831,0.6831,0.6831,0.6526,0.6552,0.6573,0.6605,0.6622,0.6643,0.6671,0.6682,0.6712,0.6747,0.6748,0.6788,0.6813,0.6859,0.6876,0.6908,0.6899,0.6913,0.6916,0.692,0.6923,0.6832,0.6915,0.6915,0.6915,0.6914,0.6914,0,0.6611,0.6622,0.6652,0.6683,0.6708,0.6697,0.6722,0.6745,0.6779,0.6801,0.6829,0.6871,0.6906,0.6924,0.6959,0.6981,0.698,0.699,0.6989,0.6993,0.693,0.6918,0.6991,0.6991,0.6991,0.699,0.699,0.699,0.6658,0.6703,0.6706,0.6759,0.6771,0.6808,0.6823,0.6843,0.686,0.6906,0.6934,0.6944,0.6965,0.7,0.7032,0.7036,0.705,0.7061,0.7065,0.7005,0.6998,0.699,0.6979,0.7064,0.7064,0.7126,0.7126,0.7127]},{"header":{"parameterUnit":"m.s-1","parameterCategory":1,"la1":30.2991,"la2":30.254,"lo1":-89.0895,"lo2":-89.0444,"dy":0.0017,"dx":0.0017,"nx":28,"ny":28,"refTime":"2025-04-27T03:00:00:Z","depth":0,"parameterNumber":3,"parameterNumberName":"V-component_of_WINDS"},"data":[0,0,0,0,0,0,0,0,0,0,0,0,0,0,0,0,0,0,0,0,0,0,0,0,0,0,0,0,0,0,0,0,0,0,0,0,0,0,0,0,0,0,0,0,0,0,0,0,0,0,0,0,0,0,0,0,0,0,2.4557,2.4558,0,2.4616,2.4617,2.4618,2.4609,2.4608,2.4607,2.4606,2.466,2.4662,2.4665,0,0,0,0,0,0,0,0,0,0,0,0,0,2.4429,2.4432,2.4557,2.4558,2.4559,2.4616,2.4617,2.4618,2.4609,2.4608,2.4607,2.4605,2.4659,2.4662,2.4665,0,0,0,0,0,0,0,0,0,0,0,0,0,2.4486,2.4432,2.4557,2.4561,2.4562,2.4616,2.4617,2.4618,2.4609,2.4608,2.4606,2.4605,2.4658,2.4662,2.4665,2.4717,0,0,2.4676,2.4678,0,0,0,0,0,0,0,0,2.4483,2.4491,2.456,2.4561,2.4562,2.4604,2.4592,2.4651,2.461,2.4591,2.4606,2.4604,2.4642,2.4647,2.4661,2.472,2.4722,2.4677,2.4679,2.468,2.4681,0,0,0,0,0,0,0,2.4479,2.4488,2.458,2.4561,2.4562,2.4558,2.4564,2.4603,2.4624,2.4593,2.4592,2.46,2.4642,2.4658,2.4662,2.4723,2.4676,2.468,2.4682,2.4683,2.4826,2.4827,0,0,0,0,0,0,2.4475,2.4485,2.4578,2.4582,2.4518,2.4561,2.4569,2.4592,2.4624,2.4627,2.4601,2.4599,2.4652,2.4658,2.4664,2.4727,2.468,2.4684,2.4686,2.4824,2.4826,2.4828,0,0,0,0,0,0,2.4472,2.4483,2.4576,2.4534,2.4545,2.4565,2.4591,2.4594,2.4609,2.463,2.4633,2.4613,2.4651,2.4659,2.4704,2.4728,2.4685,2.4688,2.4822,2.4825,2.4827,2.4852,0,0,0,0,0,0,2.4469,2.4482,2.4504,2.4534,2.4547,2.4617,2.4593,2.4596,2.4616,2.4614,2.4642,2.4645,2.4651,2.4699,2.4708,2.4732,2.4691,2.482,2.4823,2.4826,2.4849,2.4855,2.486,0,0,0,0,0,2.4464,2.4507,2.4505,2.4516,2.4575,2.4619,2.4626,2.4633,2.4618,2.4639,2.4652,2.4644,2.4724,2.4704,2.4714,2.474,2.4818,2.4822,2.4826,2.4846,2.4854,2.486,0,0,0,0,0,0,2.4476,2.4511,2.4509,2.4564,2.4589,2.4617,2.4643,2.4641,2.4669,2.4666,2.4672,2.4678,2.4724,2.4736,2.4712,2.4791,2.4769,2.4775,2.4781,2.4788,2.4794,2.479,2.4694,0,0,0,0,0,2.4486,2.4521,2.4548,2.4594,2.4607,2.4623,2.4642,2.4646,2.4671,2.4681,2.4697,2.472,2.475,2.477,2.4799,2.4851,2.4856,2.4873,2.4879,2.4883,2.4888,2.4916,2.4924,2.484,2.484,2.484,0,0,2.4505,2.4528,2.455,2.4597,2.4617,2.465,2.4632,2.4668,2.4693,2.4685,2.473,2.4743,2.4768,2.4817,2.4839,2.4829,2.4912,2.4888,2.4891,2.4894,2.492,2.4928,2.4935,2.4842,2.4842,2.4842,0,0,2.4558,2.4579,2.462,2.464,2.4671,2.4682,2.4691,2.4721,2.473,2.4775,2.477,2.4798,2.485,2.4869,2.4885,2.4945,2.4938,2.4954,2.4982,2.5009,2.5016,2.5021,2.5042,2.505,2.4958,2.4958,2.4958,0,2.4577,2.463,2.464,2.4678,2.4698,2.4695,2.4735,2.4754,2.4791,2.4804,2.4793,2.4858,2.4875,2.4928,2.4943,2.4956,2.4966,2.495,2.5014,2.502,2.5026,2.5046,2.5054,2.496,2.496,2.496,2.496,0,2.4652,2.4689,2.4717,2.4757,2.478,2.4818,2.4832,2.4854,2.4856,2.4867,2.4912,2.4933,2.4966,2.4978,2.4979,2.5031,2.5024,2.5013,2.4991,2.5035,2.5054,2.5062,2.4962,2.4962,2.4961,2.4961,0,0,2.4714,2.4759,2.4769,2.4787,2.4821,2.4848,2.4886,2.492,2.4939,2.4965,2.4996,2.504,2.5031,2.5049,2.5052,2.5076,2.5121,2.5062,2.5063,2.5072,2.5179,2.5187,2.5196,2.5118,2.5119,2.512,2.5177,0,2.4769,2.4839,2.4848,2.4908,2.4942,2.494,2.4972,2.4995,2.5007,2.5035,2.5047,2.5078,2.5064,2.5075,2.5098,2.5111,2.5143,2.5107,2.5145,2.5146,2.5138,2.5205,2.5214,2.5266,2.5184,2.5185,2.5186,0,2.4843,2.4874,2.4938,2.4968,2.4982,2.5012,2.5044,2.5072,2.5098,2.5104,2.5125,2.5125,2.5162,2.5139,2.5189,2.5165,2.5181,2.5189,2.5191,2.5194,2.5169,2.521,2.5283,2.5291,2.5198,2.5197,2.5196,0,2.4881,2.4938,2.4984,2.5,2.5036,2.5056,2.5072,2.5096,2.5116,2.5144,2.5157,2.5187,2.5204,2.5226,2.5234,2.5217,2.5284,2.5261,2.5289,2.5289,2.5303,2.5301,2.5378,2.5313,2.5313,2.5313,2.5313,0,2.4942,2.4981,2.5002,2.503,2.5074,2.5084,2.5126,2.514,2.5162,2.5191,2.519,2.5217,2.5226,2.5254,2.526,2.53,2.5307,2.5313,2.5314,2.5313,2.5312,2.5323,2.5319,2.5315,2.5315,2.5314,2.5314,0,2.4992,2.5007,2.5057,2.5088,2.5097,2.5127,2.5152,2.5178,2.519,2.5227,2.5236,2.5253,2.5286,2.5297,2.5335,2.5339,2.5387,2.5384,2.5379,2.5379,2.5405,2.5403,2.5492,2.5504,2.5431,2.5432,2.5432,0,2.5029,2.506,2.5095,2.5116,2.5133,2.5166,2.5187,2.5197,2.5219,2.5251,2.5273,2.5306,2.5334,2.5386,2.54,2.543,2.5428,2.5458,2.5433,2.5431,2.5428,2.5427,2.5429,2.5462,2.5463,2.5463,2.5464,0,2.5094,2.5101,2.5133,2.5168,2.5194,2.5221,2.5247,2.5263,2.5277,2.5301,2.5337,2.5358,2.5399,2.5431,2.5462,2.5475,2.5472,2.5472,2.548,2.5479,2.5474,2.5477,2.5391,2.547,2.5469,2.5469,2.5468,2.5468,2.5139,2.5166,2.5195,2.523,2.5252,2.5276,2.5303,2.5318,2.5349,2.5385,2.5388,2.5426,2.545,2.5491,2.5506,2.5534,2.5525,2.5537,2.554,2.5542,2.5544,2.547,2.554,2.5539,2.5539,2.5539,2.5539,0,2.5203,2.5222,2.5255,2.5293,2.532,2.5317,2.5346,2.5368,2.5403,2.5427,2.5454,2.5494,2.5526,2.5543,2.5574,2.5594,2.5593,2.5601,2.56,2.5603,2.555,2.5541,2.5602,2.5602,2.5602,2.5602,2.5602,2.5602,2.524,2.5286,2.5296,2.5352,2.537,2.5409,2.5425,2.5447,2.5467,2.5512,2.554,2.5552,2.5573,2.5606,2.5634,2.5638,2.5649,2.5659,2.5662,2.5613,2.5606,2.56,2.5591,2.5662,2.5662,2.5712,2.5712,2.5713]}]]